2016-07-02 00:03:29 r, 19.84m,0000000001Hz,0000471520c,0000001.023s, 027.3C,00002191
2016-07-02 00:13:29 r, 20.21m,0000000001Hz,0000661458c,0000001.435s, 027.0C,00002191
2016-07-02 00:23:29 r, 19.53m,0000000002Hz,0000355112c,0000000.771s, 027.0C,00002191
2016-07-02 00:33:29 r, 19.27m,0000000001Hz,0000281285c,0000000.610s, 026.7C,00002191
2016-07-02 00:43:29 r, 19.58m,0000000001Hz,0000372308c,0000000.808s, 026.7C,00002191
2016-07-02 00:53:30 r, 19.33m,0000000002Hz,0000295506c,0000000.641s, 027.0C,00002191
2016-07-02 01:03:29 r, 19.33m,0000000002Hz,0000297510c,0000000.646s, 027.0C,00002191
2016-07-02 01:13:29 r, 19.39m,0000000002Hz,0000313143c,0000000.680s, 027.0C,00002191
2016-07-02 01:23:29 r, 19.44m,0000000002Hz,0000327251c,0000000.710s, 027.3C,00002191
2016-07-02 01:33:29 r, 19.53m,0000000001Hz,0000355155c,0000000.771s, 027.3C,00002191
2016-07-02 01:43:29 r, 19.86m,0000000001Hz,0000478747c,0000001.039s, 027.3C,00002191
2016-07-02 01:53:29 r, 19.82m,0000000001Hz,0000461711c,0000001.002s, 027.3C,00002191
2016-07-02 02:03:29 r, 19.82m,0000000001Hz,0000460629c,0000001.000s, 027.0C,00002191
2016-07-02 02:13:29 r, 19.72m,0000000001Hz,0000423292c,0000000.919s, 027.0C,00002191
2016-07-02 02:23:29 r, 19.69m,0000000002Hz,0000409016c,0000000.888s, 027.0C,00002191
2016-07-02 02:33:29 r, 19.58m,0000000001Hz,0000372588c,0000000.809s, 027.0C,00002191
2016-07-02 02:43:30 r, 19.51m,0000000001Hz,0000348661c,0000000.757s, 027.0C,00002191
2016-07-02 02:53:31 r, 19.55m,0000000001Hz,0000361803c,0000000.785s, 027.0C,00002191
2016-07-02 03:03:29 r, 19.30m,0000000002Hz,0000287130c,0000000.623s, 026.7C,00002191
2016-07-02 03:13:29 r, 19.75m,0000000001Hz,0000435797c,0000000.946s, 026.7C,00002191
2016-07-02 03:23:29 r, 19.64m,0000000002Hz,0000389836c,0000000.846s, 026.7C,00002191
2016-07-02 03:33:29 r, 19.39m,0000000002Hz,0000313091c,0000000.679s, 026.4C,00002191
2016-07-02 03:43:29 r, 18.98m,0000000002Hz,0000213204c,0000000.463s, 026.4C,00002191
2016-07-02 03:53:29 r, 18.44m,0000000003Hz,0000130486c,0000000.283s, 026.1C,00002191
2016-07-02 04:03:29 r, 17.78m,0000000006Hz,0000070732c,0000000.153s, 026.1C,00002191
2016-07-02 04:13:29 r, 17.05m,0000000013Hz,0000036491c,0000000.079s, 026.1C,00002191
2016-07-02 04:23:30 r, 15.65m,0000000046Hz,0000010002c,0000000.022s, 025.7C,00002191
2016-07-02 04:33:29 r, 14.48m,0000000137Hz,0000000000c,0000000.000s, 025.7C,00002191
2016-07-02 04:43:29 r, 13.01m,0000000530Hz,0000000000c,0000000.000s, 025.7C,00002191
2016-07-02 04:53:29 r, 11.38m,0000002382Hz,0000000000c,0000000.000s, 025.7C,00002191
2016-07-02 05:03:29 r, 09.95m,0000008873Hz,0000000000c,0000000.000s, 025.7C,00002191
2016-07-02 05:13:29 r, 08.73m,0000027302Hz,0000000000c,0000000.000s, 025.7C,00002191
2016-07-02 05:23:29 r, 07.69m,0000071085Hz,0000000000c,0000000.000s, 025.7C,00002191
2016-07-02 05:33:29 r, 06.84m,0000156133Hz,0000000000c,0000000.000s, 025.7C,00002191
2016-07-02 05:43:30 r, 06.23m,0000273028Hz,0000000000c,0000000.000s, 025.7C,00002191
2016-07-02 05:53:29 r, 05.96m,0000350976Hz,0000000000c,0000000.000s, 026.1C,00002191
2016-07-02 06:03:32 r, 00.00m,0000595545Hz,0000000000c,0000000.000s, 026.4C,00002191
2016-07-02 06:13:29 r, 00.00m,0000595548Hz,0000000000c,0000000.000s, 026.7C,00002191
2016-07-02 06:23:29 r, 00.00m,0000595537Hz,0000000000c,0000000.000s, 027.3C,00002191
2016-07-02 06:33:29 r, 00.00m,0000595340Hz,0000000000c,0000000.000s, 028.6C,00002191
2016-07-02 06:43:29 r, 00.00m,0000595223Hz,0000000000c,0000000.000s, 029.6C,00002191
2016-07-02 06:53:29 r, 00.00m,0000595200Hz,0000000000c,0000000.000s, 030.2C,00002191
2016-07-02 07:03:29 r, 00.00m,0000595161Hz,0000000000c,0000000.000s, 031.5C,00002191
2016-07-02 07:13:30 r, 00.00m,0000595016Hz,0000000000c,0000000.000s, 031.9C,00002191
2016-07-02 07:23:30 r, 00.00m,0000595024Hz,0000000000c,0000000.000s, 032.8C,00002191
2016-07-02 07:33:29 r, 00.00m,0000595069Hz,0000000000c,0000000.000s, 033.1C,00002191
2016-07-02 07:43:29 r, 00.00m,0000595044Hz,0000000000c,0000000.000s, 033.1C,00002191
2016-07-02 07:53:29 r, 00.00m,0000594923Hz,0000000000c,0000000.000s, 033.5C,00002191
2016-07-02 08:03:29 r, 00.00m,0000594858Hz,0000000000c,0000000.000s, 034.8C,00002191
2016-07-02 08:13:29 r, 00.00m,0000594663Hz,0000000000c,0000000.000s, 036.0C,00002191
2016-07-02 08:23:29 r, 00.00m,0000594332Hz,0000000000c,0000000.000s, 038.0C,00002191
2016-07-02 08:33:29 r, 00.00m,0000594046Hz,0000000000c,0000000.000s, 039.9C,00002191
2016-07-02 08:43:29 r, 00.00m,0000593750Hz,0000000000c,0000000.000s, 042.2C,00002191
2016-07-02 08:53:29 r, 00.00m,0000593507Hz,0000000000c,0000000.000s, 044.1C,00002191
2016-07-02 09:03:29 r, 00.00m,0000593342Hz,0000000000c,0000000.000s, 045.1C,00002191
2016-07-02 09:13:29 r, 00.00m,0000593399Hz,0000000000c,0000000.000s, 045.4C,00002191
2016-07-02 09:23:30 r, 00.00m,0000593428Hz,0000000000c,0000000.000s, 045.1C,00002191
2016-07-02 09:33:30 r, 00.00m,0000593272Hz,0000000000c,0000000.000s, 046.4C,00002191
2016-07-02 09:43:30 r, 00.00m,0000593209Hz,0000000000c,0000000.000s, 047.0C,00002191
2016-07-02 09:53:30 r, 00.00m,0000593083Hz,0000000000c,0000000.000s, 047.3C,00002191
2016-07-02 10:03:29 r, 00.00m,0000592984Hz,0000000000c,0000000.000s, 048.0C,00002191
2016-07-02 10:13:29 r, 00.00m,0000592827Hz,0000000000c,0000000.000s, 048.9C,00002191
2016-07-02 10:23:29 r, 00.00m,0000592568Hz,0000000000c,0000000.000s, 049.9C,00002191
2016-07-02 10:33:30 r, 00.00m,0000592526Hz,0000000000c,0000000.000s, 050.2C,00002191
2016-07-02 10:43:30 r, 00.00m,0000592506Hz,0000000000c,0000000.000s, 049.9C,00002191
2016-07-02 10:53:30 r, 00.00m,0000592547Hz,0000000000c,0000000.000s, 050.2C,00002191
2016-07-02 11:03:30 r, 00.00m,0000592462Hz,0000000000c,0000000.000s, 050.6C,00002191
2016-07-02 11:13:30 r, 00.00m,0000592420Hz,0000000000c,0000000.000s, 051.2C,00002191
2016-07-02 11:23:30 r, 00.00m,0000592281Hz,0000000000c,0000000.000s, 051.8C,00002191
2016-07-02 11:33:30 r, 00.00m,0000592272Hz,0000000000c,0000000.000s, 052.2C,00002191
2016-07-02 11:43:29 r, 00.00m,0000592168Hz,0000000000c,0000000.000s, 052.5C,00002191
2016-07-02 11:53:30 r, 00.00m,0000592043Hz,0000000000c,0000000.000s, 053.1C,00002191
2016-07-02 12:03:30 r, 00.00m,0000592064Hz,0000000000c,0000000.000s, 053.5C,00002191
2016-07-02 12:13:30 r, 00.00m,0000592001Hz,0000000000c,0000000.000s, 053.5C,00002191
2016-07-02 12:23:30 r, 00.00m,0000591738Hz,0000000000c,0000000.000s, 054.4C,00002191
2016-07-02 12:33:30 r, 00.00m,0000591712Hz,0000000000c,0000000.000s, 055.1C,00002191
2016-07-02 12:43:30 r, 00.00m,0000591999Hz,0000000000c,0000000.000s, 053.8C,00002191
2016-07-02 12:53:30 r, 00.00m,0000592075Hz,0000000000c,0000000.000s, 052.8C,00002191
2016-07-02 13:03:29 r, 00.00m,0000592426Hz,0000000000c,0000000.000s, 050.6C,00002191
2016-07-02 13:13:29 r, 00.00m,0000592390Hz,0000000000c,0000000.000s, 050.2C,00002191
2016-07-02 13:23:30 r, 00.00m,0000591851Hz,0000000000c,0000000.000s, 052.8C,00002191
2016-07-02 13:33:30 r, 00.00m,0000591600Hz,0000000000c,0000000.000s, 054.4C,00002191
2016-07-02 13:43:30 r, 00.00m,0000591602Hz,0000000000c,0000000.000s, 054.7C,00002191
2016-07-02 13:53:30 r, 00.00m,0000591376Hz,0000000000c,0000000.000s, 055.7C,00002191
2016-07-02 14:03:30 r, 00.00m,0000591330Hz,0000000000c,0000000.000s, 056.7C,00002191
2016-07-02 14:13:30 r, 00.00m,0000591373Hz,0000000000c,0000000.000s, 056.7C,00002191
2016-07-02 14:23:30 r, 00.00m,0000591331Hz,0000000000c,0000000.000s, 056.4C,00002191
2016-07-02 14:33:29 r, 00.00m,0000591555Hz,0000000000c,0000000.000s, 055.1C,00002191
2016-07-02 14:43:29 r, 00.00m,0000591474Hz,0000000000c,0000000.000s, 055.4C,00002191
2016-07-02 14:53:30 r, 00.00m,0000591343Hz,0000000000c,0000000.000s, 056.4C,00002191
2016-07-02 15:03:30 r, 00.00m,0000591394Hz,0000000000c,0000000.000s, 056.7C,00002191
2016-07-02 15:13:30 r, 00.00m,0000591497Hz,0000000000c,0000000.000s, 056.0C,00002191
2016-07-02 15:23:29 r, 00.00m,0000591549Hz,0000000000c,0000000.000s, 055.4C,00002191
2016-07-02 15:33:29 r, 00.00m,0000591851Hz,0000000000c,0000000.000s, 053.5C,00002191
2016-07-02 15:43:29 r, 00.00m,0000591924Hz,0000000000c,0000000.000s, 052.5C,00002191
2016-07-02 15:53:29 r, 00.00m,0000591916Hz,0000000000c,0000000.000s, 053.1C,00002191
2016-07-02 16:03:31 r, 00.00m,0000591973Hz,0000000000c,0000000.000s, 052.2C,00002191
2016-07-02 16:13:29 r, 00.00m,0000591922Hz,0000000000c,0000000.000s, 052.8C,00002191
2016-07-02 16:23:30 r, 00.00m,0000591867Hz,0000000000c,0000000.000s, 053.1C,00002191
2016-07-02 16:33:30 r, 00.00m,0000592114Hz,0000000000c,0000000.000s, 052.2C,00002191
2016-07-02 16:43:30 r, 00.00m,0000592174Hz,0000000000c,0000000.000s, 052.2C,00002191
2016-07-02 16:53:30 r, 00.00m,0000592332Hz,0000000000c,0000000.000s, 051.5C,00002191
2016-07-02 17:03:30 r, 00.00m,0000592528Hz,0000000000c,0000000.000s, 049.3C,00002191
2016-07-02 17:13:30 r, 00.00m,0000592646Hz,0000000000c,0000000.000s, 048.3C,00002191
2016-07-02 17:23:30 r, 00.00m,0000592713Hz,0000000000c,0000000.000s, 048.3C,00002191
2016-07-02 17:33:30 r, 00.00m,0000593042Hz,0000000000c,0000000.000s, 046.0C,00002191
2016-07-02 17:43:30 r, 00.00m,0000592998Hz,0000000000c,0000000.000s, 046.7C,00002191
2016-07-02 17:53:30 r, 00.00m,0000592897Hz,0000000000c,0000000.000s, 047.0C,00002191
2016-07-02 18:03:30 r, 00.00m,0000593017Hz,0000000000c,0000000.000s, 046.4C,00002191
2016-07-02 18:13:30 r, 00.00m,0000593111Hz,0000000000c,0000000.000s, 046.4C,00002191
2016-07-02 18:23:30 r, 00.00m,0000593115Hz,0000000000c,0000000.000s, 046.4C,00002191
2016-07-02 18:33:30 r, 00.00m,0000593269Hz,0000000000c,0000000.000s, 046.0C,00002191
2016-07-02 18:43:30 r, 00.00m,0000593310Hz,0000000000c,0000000.000s, 045.4C,00002191
2016-07-02 18:53:30 r, 00.00m,0000593344Hz,0000000000c,0000000.000s, 045.1C,00002191
2016-07-02 19:03:30 r, 00.00m,0000593428Hz,0000000000c,0000000.000s, 044.4C,00002191
2016-07-02 19:13:30 r, 00.00m,0000593515Hz,0000000000c,0000000.000s, 044.1C,00002191
2016-07-02 19:23:30 r, 00.00m,0000593636Hz,0000000000c,0000000.000s, 043.1C,00002191
2016-07-02 19:33:30 r, 00.00m,0000593687Hz,0000000000c,0000000.000s, 042.5C,00002191
2016-07-02 19:43:30 r, 00.00m,0000593736Hz,0000000000c,0000000.000s, 041.9C,00002191
2016-07-02 19:53:30 r, 00.00m,0000593828Hz,0000000000c,0000000.000s, 041.2C,00002191
2016-07-02 20:03:30 r, 00.00m,0000594009Hz,0000000000c,0000000.000s, 040.6C,00002191
2016-07-02 20:13:30 r, 00.00m,0000594132Hz,0000000000c,0000000.000s, 039.6C,00002191
2016-07-02 20:23:30 r, 00.00m,0000594211Hz,0000000000c,0000000.000s, 038.6C,00002191
2016-07-02 20:33:30 r, 00.00m,0000594210Hz,0000000000c,0000000.000s, 038.0C,00002191
2016-07-02 20:43:30 r, 00.00m,0000584054Hz,0000000000c,0000000.000s, 037.3C,00002191
2016-07-02 20:53:30 r, 05.84m,0000390696Hz,0000000000c,0000000.000s, 036.4C,00002191
2016-07-02 21:03:30 r, 06.27m,0000262288Hz,0000000000c,0000000.000s, 034.8C,00002191
2016-07-02 21:13:30 r, 06.45m,0000222308Hz,0000000000c,0000000.000s, 033.8C,00002191
2016-07-02 21:23:30 r, 06.90m,0000146605Hz,0000000000c,0000000.000s, 033.1C,00002191
2016-07-02 21:33:30 r, 07.39m,0000094200Hz,0000000000c,0000000.000s, 032.2C,00002191
2016-07-02 21:43:30 r, 08.16m,0000046009Hz,0000000000c,0000000.000s, 031.9C,00002191
2016-07-02 21:53:30 r, 09.19m,0000017842Hz,0000000000c,0000000.000s, 031.2C,00002191
2016-07-02 22:03:30 r, 10.56m,0000005071Hz,0000000000c,0000000.000s, 030.9C,00002191
2016-07-02 22:13:30 r, 12.01m,0000001328Hz,0000000000c,0000000.000s, 030.6C,00002191
2016-07-02 22:23:30 r, 13.57m,0000000317Hz,0000000000c,0000000.000s, 030.2C,00002191
2016-07-02 22:33:30 r, 14.71m,0000000109Hz,0000004208c,0000000.009s, 029.9C,00002191
2016-07-02 22:43:30 r, 16.22m,0000000027Hz,0000016872c,0000000.037s, 029.9C,00002191
2016-07-02 22:53:30 r, 17.00m,0000000013Hz,0000034731c,0000000.075s, 030.2C,00002191
2016-07-02 23:03:30 r, 17.90m,0000000005Hz,0000079869c,0000000.173s, 030.2C,00002191
2016-07-02 23:13:30 r, 19.02m,0000000002Hz,0000221717c,0000000.481s, 030.2C,00002191
2016-07-02 23:23:30 r, 19.63m,0000000001Hz,0000389755c,0000000.846s, 029.9C,00002191
2016-07-02 23:33:30 r, 19.92m,0000000001Hz,0000503856c,0000001.093s, 029.6C,00002191
2016-07-02 23:43:30 r, 19.98m,0000000000Hz,0000539409c,0000001.171s, 029.6C,00002191
2016-07-02 23:53:30 r, 19.94m,0000000001Hz,0000514584c,0000001.117s, 029.3C,00002191
